Change the Weather History Date:

Monday, May 27, 2013

  Actual Average Record
Temperature  
Mean Temperature 82 °F -  
Max Temperature 87 °F 86 °F 93 °F (1998)
Min Temperature 75 °F 70 °F 60 °F (1992)
Cooling Degree Days 16    
Growing Degree Days 32 (Base 50)    
Moisture  
Dew Point 71 °F    
Average Humidity 73    
Maximum Humidity 91    
Minimum Humidity 63    
Precipitation  
Precipitation 0.03 in - - ()
Sea Level Pressure  
Sea Level Pressure 30.09 in    
Wind  
Wind Speed 14 mph (East)    
Max Wind Speed 23 mph    
Max Gust Speed 30 mph    
Visibility 10 miles    
Events Rain    
Averages and records for this station are not official NWS values.
T = Trace of Precipitation, MM = Missing Value Source: NWS Daily Summary

Daily Weather History Graph

Daily Weather History Graph

Search for Another Location

Airport or City:

Trip Planner

Search our weather history database for the weather conditions in past years. The results will help you decide how hot, cold, wet, or windy it might be!

Date:

Astronomy

May. 27, 2013 Rise Set
Actual Time 6:31 AM EDT 8:06 PM EDT
Civil Twilight 6:06 AM EDT 8:31 PM EDT
Nautical Twilight 5:35 AM EDT 9:02 PM EDT
Astronomical Twilight 5:03 AM EDT 9:34 PM EDT
Moon 10:51 PM EDT (5/27) 9:03 AM EDT (5/27)
Length of Visible Light 14h 25m
Length of Day
13h 34m
Waning Gibbous, 91% of the Moon is Illuminated
May 27
Waning Gibbous
May 31
Last Quarter
Jun 8
New
Jun 16
First Quarter
Jun 23
Full

Hourly Weather History & Observations

Time (EDT) Temp. Heat Index Dew Point Humidity Pressure Visibility Wind Dir Wind Speed Gust Speed Precip Events Conditions
12:53 AM 77.0 °F - 66.0 °F 69% 30.14 in 10.0 mi ENE 10.4 mph - N/A   Clear
1:53 AM 77.0 °F - 66.9 °F 71% 30.13 in 10.0 mi ENE 11.5 mph - N/A   Partly Cloudy
2:53 AM 78.1 °F - 66.9 °F 68% 30.10 in 10.0 mi East 12.7 mph - N/A   Overcast
3:53 AM 77.0 °F - 66.9 °F 71% 30.09 in 10.0 mi East 13.8 mph - N/A   Partly Cloudy
4:53 AM 77.0 °F - 68.0 °F 74% 30.08 in 10.0 mi East 9.2 mph - N/A   Scattered Clouds
5:53 AM 77.0 °F - 69.1 °F 76% 30.09 in 10.0 mi East 9.2 mph - N/A   Mostly Cloudy
6:53 AM 78.1 °F - 69.1 °F 74% 30.09 in 10.0 mi East 13.8 mph - N/A   Mostly Cloudy
7:53 AM 80.1 °F 83.2 °F 70.0 °F 71% 30.10 in 10.0 mi East 12.7 mph - N/A   Mostly Cloudy
8:53 AM 80.1 °F 84.5 °F 73.9 °F 81% 30.11 in 10.0 mi East 10.4 mph - 0.00 in Rain Light Rain
9:11 AM 80.6 °F 85.4 °F 73.4 °F 79% 30.11 in 10.0 mi East 16.1 mph - 0.00 in   Mostly Cloudy
9:53 AM 77.0 °F - 72.0 °F 84% 30.12 in 3.0 mi East 11.5 mph 26.5 mph 0.03 in Rain Light Rain
10:53 AM 82.9 °F 88.0 °F 72.0 °F 69% 30.12 in 10.0 mi East 18.4 mph - 0.00 in   Mostly Cloudy
11:53 AM 84.0 °F 89.0 °F 71.1 °F 65% 30.12 in 10.0 mi East 17.3 mph 25.3 mph N/A   Mostly Cloudy
12:53 PM 84.0 °F 88.4 °F 70.0 °F 63% 30.12 in 10.0 mi East 18.4 mph 24.2 mph N/A   Overcast
1:53 PM 82.9 °F 87.5 °F 71.1 °F 67% 30.12 in 10.0 mi East 19.6 mph - N/A   Overcast
2:53 PM 86.0 °F 92.2 °F 72.0 °F 63% 30.10 in 10.0 mi East 17.3 mph - N/A   Scattered Clouds
3:53 PM 82.0 °F 87.4 °F 73.0 °F 74% 30.07 in 8.0 mi East 17.3 mph - 0.00 in Rain Light Rain
4:53 PM 84.0 °F 90.2 °F 73.0 °F 69% 30.06 in 10.0 mi ENE 23.0 mph - 0.00 in   Mostly Cloudy
5:53 PM 82.9 °F 88.0 °F 72.0 °F 69% 30.05 in 10.0 mi East 19.6 mph 28.8 mph 0.00 in   Mostly Cloudy
6:53 PM 80.1 °F 83.6 °F 71.1 °F 74% 30.05 in 10.0 mi East 19.6 mph 29.9 mph 0.00 in   Overcast
7:53 PM 79.0 °F - 72.0 °F 79% 30.06 in 10.0 mi East 16.1 mph 28.8 mph 0.00 in Rain Light Rain
8:02 PM 78.8 °F - 71.6 °F 78% 30.07 in 10.0 mi East 19.6 mph 25.3 mph 0.00 in   Mostly Cloudy
8:53 PM 80.1 °F 83.6 °F 71.1 °F 74% 30.06 in 10.0 mi East 20.7 mph 27.6 mph 0.00 in   Scattered Clouds
9:53 PM 79.0 °F - 72.0 °F 79% 30.08 in 10.0 mi East 15.0 mph 24.2 mph N/A   Mostly Cloudy
10:53 PM 79.0 °F - 71.1 °F 77% 30.09 in 10.0 mi East 23.0 mph 27.6 mph N/A   Scattered Clouds
11:53 PM 75.9 °F - 73.0 °F 91% 30.10 in 10.0 mi East 13.8 mph - 0.00 in   Clear